Voltar ao catálogo

STARLINK-34979

AtivoComunicaçõesSSO
NORAD 65254·PAYLOAD·🇺🇸 United States

Lançado Aug 18, 2025 de Vandenberg Space Force Base

Loading…

Próximas Passagens (próximas 24 horas)

TLE

AtualizadoSource: CelesTrak SupGP

Época: Sep 14, 2026, 22:29 UTC

1 65254C 25179V   26257.93729167  .00043063  00000+0  13371-2 0  2571
2 65254  97.2826 297.3838 0001258 110.4486 247.7957 15.33408871    10

Acompanhe STARLINK-34979 em tempo real com AllMySat

Download on the App Store